SEH475 LGAV-LGPA

Flight info

Callsign SEH475
Flight time 0h 22m
Altitude 12000
Route KEA UL52 RAPOS
Aircraft AT76/M-SDFGIRY/S

Departure

Time 2026-04-21 15:24
Airport Athens Eleftherios Venizelos International Airport (LGAV)

Arrival

Time 2026-04-21 15:47
Airport Paros National Airport (LGPA)
Time Latitude Longitude Altitude Speed Heading
2026-04-21 15:10 37.94232 23.95554 293 ft 0 kts 46°
2026-04-21 15:20 37.94230 23.95553 293 ft 0 kts 59°
2026-04-21 15:21 37.94229 23.95552 293 ft 1 kts 86°
2026-04-21 15:21 37.94230 23.95586 292 ft 2 kts 86°
2026-04-21 15:21 37.94237 23.95626 296 ft 19 kts 77°
2026-04-21 15:22 37.94293 23.95813 299 ft 24 kts 68°
2026-04-21 15:22 37.94329 23.95946 301 ft 0 kts 73°
2026-04-21 15:22 37.94353 23.95971 302 ft 12 kts 39°
2026-04-21 15:22 37.94457 23.96069 301 ft 25 kts 34°
2026-04-21 15:23 37.94612 23.96215 303 ft 29 kts 44°
2026-04-21 15:23 37.94570 23.96341 301 ft 18 kts 192°
2026-04-21 15:23 37.94331 23.96186 300 ft 67 kts 217°
2026-04-21 15:23 37.93814 23.95698 322 ft 113 kts 213°
2026-04-21 15:24 37.93043 23.95178 604 ft 133 kts 204°
2026-04-21 15:24 37.92046 23.94601 668 ft 172 kts 214°
2026-04-21 15:24 37.91062 23.93540 659 ft 190 kts 218°
2026-04-21 15:24 37.89879 23.92754 986 ft 192 kts 205°
2026-04-21 15:25 37.88647 23.92066 1463 ft 195 kts 203°
2026-04-21 15:25 37.87402 23.91332 1901 ft 198 kts 206°
2026-04-21 15:25 37.86165 23.90539 2376 ft 201 kts 208°
2026-04-21 15:25 37.84930 23.89685 2887 ft 204 kts 209°
2026-04-21 15:26 37.83679 23.88807 3370 ft 208 kts 211°
2026-04-21 15:26 37.82407 23.87915 3824 ft 211 kts 211°
2026-04-21 15:26 37.81107 23.87016 4305 ft 214 kts 209°
2026-04-21 15:26 37.79647 23.86706 4780 ft 223 kts 172°
2026-04-21 15:27 37.78312 23.87645 5216 ft 232 kts 134°
2026-04-21 15:27 37.77628 23.89493 5699 ft 234 kts 99°
2026-04-21 15:27 37.77417 23.91528 6192 ft 235 kts 98°
2026-04-21 15:27 37.77122 23.93577 6653 ft 238 kts 103°
2026-04-21 15:28 37.76712 23.95618 7109 ft 240 kts 107°
2026-04-21 15:28 37.76137 23.97612 7570 ft 242 kts 114°
2026-04-21 15:28 37.75364 23.99508 8052 ft 244 kts 122°
2026-04-21 15:28 37.74430 24.01313 8528 ft 246 kts 126°
2026-04-21 15:29 37.73440 24.03091 9007 ft 248 kts 127°
2026-04-21 15:29 37.72444 24.04876 9489 ft 249 kts 127°
2026-04-21 15:29 37.71447 24.06664 9985 ft 250 kts 126°
2026-04-21 15:29 37.70462 24.08478 10431 ft 251 kts 125°
2026-04-21 15:30 37.69478 24.10312 10889 ft 252 kts 126°
2026-04-21 15:30 37.68495 24.12148 11381 ft 253 kts 125°
2026-04-21 15:30 37.67510 24.13989 11840 ft 253 kts 126°
2026-04-21 15:30 37.66522 24.15834 12316 ft 254 kts 126°
2026-04-21 15:31 37.65533 24.17678 12794 ft 255 kts 126°
2026-04-21 15:31 37.64504 24.19597 12882 ft 272 kts 126°
2026-04-21 15:31 37.63418 24.21622 12913 ft 282 kts 126°
2026-04-21 15:31 37.62311 24.23688 12927 ft 287 kts 126°
2026-04-21 15:32 37.61184 24.25790 12931 ft 291 kts 126°
2026-04-21 15:32 37.60041 24.27916 12942 ft 294 kts 126°
2026-04-21 15:32 37.58888 24.30061 12936 ft 297 kts 126°
2026-04-21 15:32 37.57724 24.32227 12939 ft 299 kts 126°
2026-04-21 15:33 37.56555 24.34405 12929 ft 300 kts 126°
2026-04-21 15:33 37.55381 24.36579 12940 ft 301 kts 126°
2026-04-21 15:33 37.54204 24.38764 12941 ft 302 kts 126°
2026-04-21 15:33 37.53026 24.40951 12942 ft 302 kts 126°
2026-04-21 15:34 37.51843 24.43141 12940 ft 303 kts 126°
2026-04-21 15:34 37.50658 24.45334 12944 ft 303 kts 126°
2026-04-21 15:34 37.49474 24.47529 12939 ft 303 kts 126°
2026-04-21 15:34 37.48293 24.49711 12948 ft 303 kts 126°
2026-04-21 15:35 37.47103 24.51909 12942 ft 303 kts 126°
2026-04-21 15:35 37.45921 24.54099 12948 ft 303 kts 126°
2026-04-21 15:35 37.44730 24.56295 12938 ft 303 kts 126°
2026-04-21 15:35 37.43538 24.58491 12669 ft 302 kts 126°
2026-04-21 15:36 37.42369 24.60650 12411 ft 297 kts 126°
2026-04-21 15:36 37.41212 24.62782 12156 ft 293 kts 126°
2026-04-21 15:36 37.40078 24.64883 11898 ft 290 kts 125°
2026-04-21 15:36 37.38962 24.66986 11640 ft 287 kts 124°
2026-04-21 15:37 37.37865 24.69066 11391 ft 284 kts 125°
2026-04-21 15:37 37.36754 24.71113 11143 ft 283 kts 126°
2026-04-21 15:37 37.35646 24.73149 10890 ft 281 kts 126°
2026-04-21 15:37 37.34544 24.75173 10655 ft 280 kts 125°
2026-04-21 15:38 37.33448 24.77185 10414 ft 278 kts 125°
2026-04-21 15:38 37.32353 24.79189 10124 ft 279 kts 125°
2026-04-21 15:38 37.31241 24.81225 9634 ft 286 kts 125°
2026-04-21 15:38 37.30262 24.83017 9182 ft 291 kts 125°
2026-04-21 15:39 37.29108 24.85127 8666 ft 294 kts 125°
2026-04-21 15:39 37.27951 24.87249 8155 ft 296 kts 125°
2026-04-21 15:39 37.26800 24.89353 7687 ft 296 kts 125°
2026-04-21 15:39 37.26303 24.90261 7473 ft 293 kts 125°
2026-04-21 15:40 37.26226 24.90400 7447 ft 292 kts 125°
2026-04-21 15:41 37.26188 24.90470 7432 ft 292 kts 125°
2026-04-21 15:41 37.24891 24.92834 6901 ft 285 kts 125°
2026-04-21 15:41 37.23778 24.94868 6431 ft 280 kts 125°
2026-04-21 15:41 37.22684 24.96867 5946 ft 276 kts 125°
2026-04-21 15:42 37.21967 24.98168 5631 ft 273 kts 127°
2026-04-21 15:42 37.20502 25.00713 5018 ft 266 kts 128°
2026-04-21 15:42 37.20155 25.01323 4872 ft 264 kts 128°
2026-04-21 15:43 37.19364 25.02749 4505 ft 262 kts 127°
2026-04-21 15:43 37.18347 25.04621 4007 ft 258 kts 127°
2026-04-21 15:43 37.17343 25.06466 3549 ft 254 kts 127°
2026-04-21 15:43 37.16354 25.08294 3080 ft 252 kts 127°
2026-04-21 15:44 37.15368 25.10098 2625 ft 250 kts 128°
2026-04-21 15:44 37.14401 25.11815 2529 ft 231 kts 134°
2026-04-21 15:44 37.13132 25.12792 2470 ft 208 kts 166°
2026-04-21 15:44 37.11697 25.13234 2063 ft 213 kts 173°
2026-04-21 15:45 37.10216 25.13428 1678 ft 210 kts 181°
2026-04-21 15:45 37.09196 25.13441 1447 ft 148 kts 185°
2026-04-21 15:45 37.08194 25.13379 1286 ft 141 kts 188°
2026-04-21 15:45 37.07272 25.13030 1121 ft 138 kts 209°
2026-04-21 15:46 37.06461 25.12408 1018 ft 138 kts 216°
2026-04-21 15:46 37.05668 25.11733 877 ft 137 kts 217°
2026-04-21 15:46 37.04880 25.11105 709 ft 136 kts 193°
2026-04-21 15:46 37.03957 25.11011 505 ft 127 kts 188°
2026-04-21 15:47 37.03211 25.11049 263 ft 115 kts 166°
2026-04-21 15:47 37.02550 25.11217 118 ft 28 kts 172°
2026-04-21 15:47 37.02486 25.11228 118 ft 17 kts 171°
2026-04-21 15:47 37.02241 25.11281 116 ft 20 kts 169°
2026-04-21 15:48 37.02153 25.11312 118 ft 4 kts 149°
2026-04-21 15:48 37.02163 25.11305 117 ft 0 kts 155°
2026-04-21 15:49 37.02118 25.11363 117 ft 18 kts 124°
2026-04-21 15:49 37.02043 25.11483 118 ft 13 kts 131°
2026-04-21 15:49 37.02023 25.11544 118 ft 5 kts 89°
2026-04-21 15:50 37.02024 25.11561 118 ft 0 kts 73°
2026-04-21 15:50 37.02041 25.11587 115 ft 10 kts 51°
2026-04-21 15:50 37.02046 25.11605 116 ft 0 kts 76°